| time (UTC) | temp F | wind direction | speed knots | gust knots | rain 1hr in | rain 24hr in | rain mn in | humidity % | barometer mb |
| 20260502123606 | 70 | 158 | 2.6 | 4.3 | 0.00 | 0.00 | 0.00 | 45 | 1015.3 |
| 20260502122706 | 71 | 232 | 3.5 | 7.0 | 0.00 | 0.00 | 0.00 | 45 | 1015.3 |
| 20260502121806 | 70 | 203 | 3.5 | 7.0 | 0.00 | 0.00 | 0.00 | 46 | 1015.5 |
| 20260502120906 | 70 | 193 | 3.5 | 4.3 | 0.00 | 0.00 | 0.00 | 45 | 1015.7 |
| 20260502115427 | 69 | 130 | 2.6 | 3.5 | 0.00 | 0.00 | 0.00 | 45 | 1015.9 |
| 20260502114506 | 69 | 88 | 3.5 | 5.2 | 0.00 | 0.00 | 0.00 | 45 | 1016.2 |
| 20260502113606 | 68 | 158 | 2.6 | 5.2 | 0.00 | 0.00 | 0.00 | 49 | 1016.4 |
| 20260502112706 | 68 | 165 | 3.5 | 5.2 | 0.00 | 0.00 | 0.00 | 50 | 1016.2 |
| 20260502111827 | 68 | 171 | 3.5 | 5.2 | 0.00 | 0.00 | 0.00 | 51 | 1016.4 |
| 20260502110906 | 68 | 183 | 1.7 | 3.5 | 0.00 | 0.00 | 0.00 | 54 | 1016.6 |
| 20260502110027 | 67 | 167 | 2.6 | 4.3 | 0.00 | 0.00 | 0.00 | 54 | 1016.7 |
| 20260502105406 | 67 | 209 | 2.6 | 3.5 | 0.00 | 0.00 | 0.00 | 53 | 1016.9 |
| 20260502104527 | 66 | 201 | 3.5 | 5.2 | 0.00 | 0.00 | 0.00 | 54 | 1017.0 |
| 20260502103606 | 66 | 172 | 2.6 | 4.3 | 0.00 | 0.00 | 0.00 | 56 | 1017.1 |
| 20260502102706 | 65 | 237 | 2.6 | 4.3 | 0.00 | 0.00 | 0.00 | 58 | 1017.2 |
| 20260502101806 | 65 | 184 | 2.6 | 4.3 | 0.00 | 0.00 | 0.00 | 57 | 1017.3 |
| 20260502100906 | 64 | 161 | 1.7 | 3.5 | 0.00 | 0.00 | 0.00 | 57 | 1017.4 |
| 20260502090927 | 59 | 147 | 1.7 | 4.3 | 0.00 | 0.00 | 0.00 | 77 | 1017.8 |
| 20260502070906 | 51 | 195 | 0.9 | 3.5 | 0.00 | 0.00 | 0.00 | 95 | 1018.5 |
| 20260502070006 | 51 | 252 | 0.9 | 2.6 | 0.00 | 0.00 | 0.00 | 95 | 1018.7 |
| 20260502065427 | 50 | 213 | 0.9 | 2.6 | 0.00 | 0.00 | 0.00 | 95 | 1018.5 |
| 20260502064506 | 50 | 199 | 0.9 | 3.5 | 0.00 | 0.00 | 0.00 | 95 | 1018.5 |
| 20260502063606 | 50 | 170 | 2.6 | 3.5 | 0.00 | 0.00 | 0.00 | 95 | 1018.6 |
| 20260502062706 | 50 | 174 | 0.9 | 3.5 | 0.00 | 0.00 | 0.00 | 95 | 1018.6 |
| 20260502061827 | 50 | 180 | 0.0 | 3.5 | 0.00 | 0.00 | 0.00 | 94 | 1018.6 |
| 20260502060906 | 50 | 0 | 0.0 | 0.0 | 0.00 | 0.00 | 0.00 | 94 | 1018.6 |
| 20260502060006 | 50 | 0 | 0.0 | 0.0 | 0.00 | 0.00 | 0.00 | 94 | 1018.7 |
| 20260502055406 | 50 | 0 | 0.0 | 0.0 | 0.00 | 0.00 | 0.00 | 94 | 1018.5 |
| 20260502054527 | 50 | 0 | 0.0 | 0.0 | 0.00 | 0.00 | 0.00 | 95 | 1018.5 |
| 20260502053606 | 50 | 0 | 0.0 | 0.0 | 0.00 | 0.00 | 0.00 | 95 | 1018.5 |
| 20260502052706 | 50 | 0 | 0.0 | 0.0 | 0.00 | 0.00 | 0.00 | 95 | 1018.6 |
| 20260502051806 | 49 | 0 | 0.0 | 0.0 | 0.00 | 0.00 | 0.00 | 95 | 1018.5 |
| 20260502050906 | 49 | 0 | 0.0 | 0.0 | 0.00 | 0.00 | 0.00 | 95 | 1018.5 |
| 20260502050006 | 49 | 247 | 0.9 | 3.5 | 0.00 | 0.00 | 0.00 | 95 | 1018.5 |
| 20260502044506 | 50 | 236 | 0.9 | 3.5 | 0.00 | 0.00 | 0.00 | 94 | 1018.4 |
| 20260502043606 | 50 | 225 | 0.9 | 2.6 | 0.00 | 0.00 | 0.00 | 94 | 1018.3 |
| 20260502042706 | 50 | 240 | 0.9 | 1.7 | 0.00 | 0.00 | 0.00 | 93 | 1018.5 |
| 20260502041806 | 50 | 251 | 0.9 | 3.5 | 0.00 | 0.00 | 0.00 | 94 | 1018.6 |
| 20260502040906 | 50 | 225 | 1.7 | 3.5 | 0.00 | 0.00 | 0.00 | 94 | 1018.6 |
| 20260502040006 | 50 | 225 | 0.9 | 3.5 | 0.00 | 0.00 | 0.00 | 94 | 1018.6 |
| 20260502035406 | 50 | 202 | 0.0 | 2.6 | 0.00 | 0.00 | 0.00 | 93 | 1018.6 |
| 20260502034506 | 49 | 225 | 0.9 | 2.6 | 0.00 | 0.00 | 0.00 | 93 | 1018.7 |
| 20260502033606 | 49 | 242 | 0.9 | 3.5 | 0.00 | 0.00 | 0.00 | 93 | 1018.6 |
| 20260502032706 | 49 | 204 | 0.9 | 3.5 | 0.00 | 0.00 | 0.00 | 93 | 1018.7 |
| 20260502031806 | 50 | 176 | 1.7 | 3.5 | 0.00 | 0.00 | 0.00 | 93 | 1018.9 |
| 20260502030927 | 49 | 225 | 0.0 | 0.9 | 0.00 | 0.00 | 0.00 | 92 | 1018.9 |
| 20260502030006 | 49 | 180 | 0.0 | 1.7 | 0.00 | 0.00 | 0.00 | 92 | 1018.8 |
| 20260502025406 | 50 | 180 | 0.0 | 1.7 | 0.00 | 0.00 | 0.00 | 92 | 1018.9 |
| 20260502024506 | 50 | 216 | 0.0 | 0.9 | 0.00 | 0.00 | 0.00 | 91 | 1018.9 |
| 20260502023606 | 50 | 221 | 0.9 | 2.6 | 0.00 | 0.00 | 0.00 | 91 | 1018.9 |
| 20260502022727 | 50 | 245 | 0.0 | 2.6 | 0.00 | 0.00 | 0.00 | 91 | 1018.9 |
| 20260502021806 | 50 | 223 | 0.9 | 3.5 | 0.00 | 0.00 | 0.00 | 91 | 1018.9 |
| 20260502020906 | 50 | 250 | 0.0 | 1.7 | 0.00 | 0.00 | 0.00 | 90 | 1018.9 |
| 20260502020027 | 50 | 0 | 0.0 | 0.0 | 0.00 | 0.00 | 0.00 | 90 | 1019.0 |
| 20260502015405 | 51 | 225 | 0.0 | 1.7 | 0.00 | 0.00 | 0.00 | 90 | 1019.1 |
| 20260502014506 | 51 | 0 | 0.0 | 0.0 | 0.00 | 0.00 | 0.00 | 90 | 1019.0 |
| 20260502013605 | 51 | 0 | 0.0 | 0.0 | 0.00 | 0.00 | 0.00 | 90 | 1019.1 |
| 20260502012706 | 51 | 0 | 0.0 | 0.0 | 0.00 | 0.00 | 0.00 | 89 | 1019.1 |
| 20260502011806 | 51 | 0 | 0.0 | 0.0 | 0.00 | 0.00 | 0.00 | 89 | 1019.2 |
| 20260502010905 | 51 | 0 | 0.0 | 0.0 | 0.00 | 0.00 | 0.00 | 89 | 1019.2 |
| 20260502010006 | 51 | 0 | 0.0 | 0.0 | 0.00 | 0.00 | 0.00 | 88 | 1019.2 |
| 20260502005405 | 51 | 0 | 0.0 | 0.0 | 0.00 | 0.00 | 0.00 | 88 | 1019.3 |
| 20260502004527 | 51 | 202 | 0.0 | 2.6 | 0.00 | 0.00 | 0.00 | 88 | 1019.4 |
| 20260502003605 | 52 | 0 | 0.0 | 0.0 | 0.00 | 0.00 | 0.00 | 86 | 1019.7 |
| 20260502002705 | 52 | 0 | 0.0 | 0.0 | 0.00 | 0.00 | 0.00 | 86 | 1019.8 |
| 20260502001805 | 52 | 0 | 0.0 | 0.0 | 0.00 | 0.00 | 0.00 | 85 | 1019.9 |
| 20260502000906 | 52 | 0 | 0.0 | 0.0 | 0.00 | 0.00 | 0.00 | 83 | 1019.9 |
| 20260502000006 | 52 | 0 | 0.0 | 0.0 | 0.00 | 0.00 | 0.00 | 83 | 1019.9 |
| 20260501235406 | 52 | 0 | 0.0 | 0.0 | 0.00 | 0.00 | 0.00 | 83 | 1020.0 |
| 20260501234505 | 52 | 0 | 0.0 | 0.0 | 0.00 | 0.00 | 0.00 | 82 | 1019.9 |
| 20260501233605 | 52 | 0 | 0.0 | 0.0 | 0.00 | 0.00 | 0.00 | 82 | 1020.0 |
| 20260501232706 | 53 | 0 | 0.0 | 0.0 | 0.00 | 0.00 | 0.00 | 81 | 1020.1 |
| 20260501231805 | 53 | 0 | 0.0 | 0.0 | 0.00 | 0.00 | 0.00 | 81 | 1020.0 |
| 20260501230905 | 53 | 0 | 0.0 | 0.0 | 0.00 | 0.00 | 0.00 | 80 | 1020.0 |
| 20260501230006 | 54 | 225 | 0.0 | 2.6 | 0.00 | 0.00 | 0.00 | 79 | 1020.1 |
| 20260501225405 | 54 | 225 | 0.0 | 2.6 | 0.00 | 0.00 | 0.00 | 78 | 1020.2 |
| 20260501224527 | 54 | 209 | 0.9 | 3.5 | 0.00 | 0.00 | 0.00 | 78 | 1020.0 |
| 20260501223606 | 54 | 182 | 2.6 | 3.5 | 0.00 | 0.00 | 0.00 | 78 | 1020.0 |
| 20260501222706 | 55 | 184 | 1.7 | 3.5 | 0.00 | 0.00 | 0.00 | 77 | 1020.0 |
| 20260501221826 | 55 | 254 | 0.9 | 4.3 | 0.00 | 0.00 | 0.00 | 76 | 1020.0 |
| 20260501220905 | 55 | 249 | 0.9 | 4.3 | 0.00 | 0.00 | 0.00 | 75 | 1019.9 |
| 20260501220026 | 56 | 187 | 1.7 | 3.5 | 0.00 | 0.00 | 0.00 | 75 | 1019.9 |
| 20260501215405 | 56 | 178 | 0.9 | 3.5 | 0.00 | 0.00 | 0.00 | 75 | 1019.9 |
| 20260501214506 | 57 | 183 | 1.7 | 3.5 | 0.00 | 0.00 | 0.00 | 75 | 1019.9 |
| 20260501213605 | 57 | 168 | 1.7 | 3.5 | 0.00 | 0.00 | 0.00 | 73 | 1020.0 |
| 20260501212705 | 58 | 207 | 0.9 | 2.6 | 0.00 | 0.00 | 0.00 | 73 | 1020.0 |
| 20260501211826 | 58 | 182 | 0.9 | 2.6 | 0.00 | 0.00 | 0.00 | 73 | 1020.0 |
| 20260501210905 | 58 | 209 | 0.9 | 2.6 | 0.00 | 0.00 | 0.00 | 72 | 1019.9 |
| 20260501210005 | 59 | 168 | 0.9 | 3.5 | 0.00 | 0.00 | 0.00 | 72 | 1019.8 |
| 20260501205405 | 59 | 148 | 1.7 | 3.5 | 0.00 | 0.00 | 0.00 | 71 | 1019.8 |
| 20260501204505 | 59 | 174 | 1.7 | 2.6 | 0.00 | 0.00 | 0.00 | 71 | 1019.7 |
| 20260501203605 | 60 | 159 | 1.7 | 6.1 | 0.00 | 0.00 | 0.00 | 70 | 1019.7 |
| 20260501202705 | 60 | 204 | 1.7 | 3.5 | 0.00 | 0.00 | 0.00 | 70 | 1019.7 |
| 20260501201805 | 60 | 161 | 0.9 | 2.6 | 0.00 | 0.00 | 0.00 | 69 | 1019.6 |
| 20260501200905 | 61 | 182 | 0.9 | 3.5 | 0.00 | 0.00 | 0.00 | 67 | 1019.7 |
| 20260501200005 | 61 | 213 | 1.7 | 3.5 | 0.00 | 0.00 | 0.00 | 66 | 1019.6 |
| 20260501195405 | 62 | 263 | 0.0 | 2.6 | 0.00 | 0.00 | 0.00 | 65 | 1019.6 |
| 20260501194505 | 62 | 225 | 0.0 | 1.7 | 0.00 | 0.00 | 0.00 | 64 | 1019.4 |
| 20260501193605 | 63 | 230 | 0.9 | 2.6 | 0.00 | 0.00 | 0.00 | 63 | 1019.4 |
| 20260501192726 | 63 | 193 | 0.9 | 3.5 | 0.00 | 0.00 | 0.00 | 63 | 1019.4 |
| 20260501191805 | 64 | 194 | 2.6 | 3.5 | 0.00 | 0.00 | 0.00 | 62 | 1019.4 |
| 20260501190905 | 64 | 176 | 0.9 | 3.5 | 0.00 | 0.00 | 0.00 | 62 | 1019.4 |
| 20260501190005 | 64 | 158 | 1.7 | 3.5 | 0.00 | 0.00 | 0.00 | 63 | 1019.1 |
| 20260501185405 | 65 | 191 | 1.7 | 3.5 | 0.00 | 0.00 | 0.00 | 62 | 1019.1 |
| 20260501184526 | 65 | 257 | 1.7 | 3.5 | 0.00 | 0.00 | 0.00 | 62 | 1019.3 |
| 20260501183605 | 65 | 209 | 3.5 | 7.0 | 0.00 | 0.00 | 0.00 | 61 | 1019.2 |
| 20260501182705 | 66 | 240 | 4.3 | 7.0 | 0.00 | 0.00 | 0.00 | 61 | 1019.1 |
| 20260501181805 | 66 | 225 | 5.2 | 7.8 | 0.00 | 0.00 | 0.00 | 61 | 1019.1 |
| 20260501180926 | 67 | 225 | 4.3 | 7.8 | 0.00 | 0.00 | 0.00 | 60 | 1019.0 |
| 20260501180005 | 67 | 255 | 3.5 | 5.2 | 0.00 | 0.00 | 0.00 | 60 | 1018.9 |
| 20260501175405 | 67 | 236 | 3.5 | 5.2 | 0.00 | 0.00 | 0.00 | 59 | 1018.9 |
| 20260501174505 | 68 | 256 | 5.2 | 7.8 | 0.00 | 0.00 | 0.00 | 59 | 1018.8 |
| 20260501173605 | 68 | 243 | 5.2 | 7.8 | 0.00 | 0.00 | 0.00 | 58 | 1018.8 |
| 20260501172705 | 69 | 238 | 7.0 | 8.7 | 0.00 | 0.00 | 0.00 | 57 | 1018.8 |
| 20260501171826 | 69 | 250 | 5.2 | 10.4 | 0.00 | 0.00 | 0.00 | 56 | 1018.9 |
| 20260501170905 | 70 | 240 | 4.3 | 7.0 | 0.00 | 0.00 | 0.00 | 56 | 1018.9 |
| 20260501170005 | 70 | 255 | 6.1 | 10.4 | 0.00 | 0.00 | 0.00 | 55 | 1019.0 |
| 20260501165405 | 71 | 223 | 6.1 | 7.8 | 0.00 | 0.00 | 0.00 | 56 | 1018.8 |
| 20260501164505 | 71 | 267 | 5.2 | 7.8 | 0.00 | 0.00 | 0.00 | 55 | 1019.0 |
| 20260501163626 | 71 | 216 | 5.2 | 7.8 | 0.00 | 0.00 | 0.00 | 57 | 1018.9 |
| 20260501162705 | 71 | 217 | 5.2 | 7.0 | 0.00 | 0.00 | 0.00 | 58 | 1019.0 |
| 20260501161805 | 71 | 211 | 5.2 | 9.6 | 0.00 | 0.00 | 0.00 | 57 | 1019.1 |
| 20260501160905 | 71 | 249 | 5.2 | 8.7 | 0.00 | 0.00 | 0.00 | 56 | 1019.1 |
| 20260501160026 | 71 | 224 | 5.2 | 7.8 | 0.00 | 0.00 | 0.00 | 55 | 1019.2 |
| 20260501155405 | 71 | 248 | 4.3 | 8.7 | 0.00 | 0.00 | 0.00 | 55 | 1019.1 |
| 20260501154505 | 71 | 227 | 4.3 | 7.0 | 0.00 | 0.00 | 0.00 | 53 | 1019.0 |
| 20260501153605 | 73 | 183 | 4.3 | 7.0 | 0.00 | 0.00 | 0.00 | 52 | 1019.1 |
| 20260501152705 | 73 | 204 | 6.1 | 9.6 | 0.00 | 0.00 | 0.00 | 50 | 1019.1 |
| 20260501151805 | 75 | 206 | 5.2 | 9.6 | 0.00 | 0.00 | 0.00 | 52 | 1019.2 |
| 20260501150926 | 75 | 192 | 6.1 | 9.6 | 0.00 | 0.00 | 0.00 | 51 | 1019.2 |
| 20260501150005 | 75 | 247 | 5.2 | 9.6 | 0.00 | 0.00 | 0.00 | 51 | 1019.3 |
| 20260501145405 | 75 | 219 | 6.1 | 13.0 | 0.00 | 0.00 | 0.00 | 50 | 1019.3 |
| 20260501144526 | 76 | 205 | 5.2 | 13.0 | 0.00 | 0.00 | 0.00 | 51 | 1019.2 |
| 20260501143626 | 75 | 214 | 4.3 | 8.7 | 0.00 | 0.00 | 0.00 | 49 | 1019.1 |
| 20260501142705 | 76 | 227 | 4.3 | 7.8 | 0.00 | 0.00 | 0.00 | 48 | 1019.1 |